Location: Dob?e?
(49.9411°N, 15.1496°E)
Time: 12:24:31
(UTC+00:00)

DELFI C3 - Pass Details

Date: 25 October 2021
Orbit: 529 x 543 km, 97.4° (Epoch: 29 November)

Event Time Altitude Azimuth Distance (km) Brightness Sun altitude
Exits shadow 16:47:13 14° 86° (E) 1,544 ? -10.0°
Maximum altitude 16:48:35 16° 61° (ENE) 1,421 ? -10.2°
Drops below altitude 10° 16:51:02 10° 22° (NNE) 1,790 ? -10.6°
Sets 16:53:45 0° 1° (N) 2,686 ? -11.1°
